User: anonymous   Login
Location: Grossmotten
(48.5500°N, 15.3833°E)
Time: 10:53:23
(UTC+00:00)
Language:

Lacrosse 5 rocket - Orbit

View from above orbital plane
View from above orbital plane
View from above satellite
View from above satellite

Ground track
Ground track

The orbit data is extracted from the following two-line orbital elements,

1 28647U 05016B   20028.55800943 +.00000085 +00000-0 +23431-4 0  9995
2 28647 056.9982 093.4126 0120672 248.1801 110.6364 15.05889974038733
Epoch (UTC): 28 January 2020 13:23:32
Eccentricity: 0.0120672
inclination: 56.9982°
perigee height: 465 km
apogee height: 632 km
right ascension of ascending node: 93.4126°
argument of perigee: 248.1801°
revolutions per day: 15.05889974
mean anomaly at epoch: 110.6364°
orbit number at epoch: 3873

The dashed part of the orbit path shows where the satellite is in the earth's shadow,  

DLR